#timestamp,LO_Frequency,Hit,StdDev 
1456405215.4,286046999.6,N
1456405235.2,286046999.1,N
1456405255.1,286046998.3,N
1456405256.0,286046998.3,N
1456405275.8,286046998.5,N
1456405295.6,286046998.3,N
1456405315.4,286047000.2,N
1456405335.3,286047000.9,N
1456405355.1,286047001.5,N
1456405375.8,286047000.4,N
1456405395.7,286047002.3,N
1456405415.5,286047001.5,N
1456405435.3,286047001.0,N
1456405455.2,286047004.4,N
1456405475.9,286047001.9,N
1456405495.7,286047002.6,N
1456405515.6,286047002.2,N
1456405535.4,286047005.9,N
1456405555.2,286047000.2,N
1456405575.1,286047000.6,N
1456405576.0,286047000.6,N
1456405595.8,286046998.6,N
1456405615.6,286047000.0,N
1456405635.4,286047002.7,N
1456405655.3,286046999.8,N
1456405675.1,286047002.5,N
1456405695.8,286046998.3,N
1456405715.7,286046999.0,N
1456405735.5,286047002.4,N
1456405755.3,286047007.0,Y
1456405775.2,286047003.0,P
1456405795.0,286047003.2,N
1456405795.9,286047003.2,N
1456405815.8,286047006.4,Y
1456405835.6,286047006.3,P
1456405855.4,286047007.5,P
1456405875.2,286047003.1,N
1456405895.1,286047002.0,N
1456405896.0,286047002.0,N
1456405915.8,286047002.0,N
1456405935.6,286046996.5,N
1456405955.5,286046995.1,N
1456405975.3,286046996.4,N
1456405995.1,286046997.9,N
1456406015.9,286046995.2,N
1456406035.7,286046997.8,N
1456406055.5,286046996.6,N
1456406075.4,286047000.7,N
1456406095.2,286046998.3,N
1456406115.0,286046998.6,N
1456406115.9,286046998.6,N
1456406135.8,286046999.9,N
1456406155.6,286047004.4,N
1456406175.4,286047002.7,N
1456406195.2,286047001.2,N
1456406215.1,286046998.6,N
1456406216.0,286046998.6,N
1456406235.8,286046998.4,N
1456406255.6,286046998.3,N
1456406275.5,286046997.1,N
1456406295.3,286047000.6,N
1456406315.1,286047002.1,N
1456406335.9,286046999.7,N
1456406355.7,286047000.8,N
1456406375.5,286047004.4,N
1456406395.4,286047005.8,N
1456406415.2,286047007.3,N
1456406435.0,286047008.8,N
1456406435.9,286047008.8,N
1456406455.8,286047006.6,N
1456406475.6,286047007.5,N
1456406495.4,286047008.2,N
1456406515.2,286047009.8,N
1456406535.1,286047010.8,N
1456406536.0,286047010.8,N
1456406555.8,286047009.1,N
1456406575.6,286047010.8,N
1456406595.5,286047010.8,N
1456406615.3,286047013.2,N
1456406635.1,286047010.9,N
1456406655.9,286047014.9,Y
1456406675.7,286047011.0,P
1456406695.5,286047015.5,P
1456406715.4,286047014.4,P
1456406735.2,286047014.5,Y
1456406755.0,286047001.4,P
1456406755.9,286047001.4,N
1456406775.8,286047003.4,N
1456406795.6,286047002.6,N
1456406815.4,286047003.2,N
1456406835.3,286047007.4,N
1456406855.1,286047006.2,N
1456406856.0,286047006.2,N
1456406875.8,286047009.3,N
1456406895.7,286047008.4,N
1456406915.5,286047009.2,N
1456406935.3,286047007.9,N
1456406955.2,286047011.1,Y
1456406975.9,286047007.7,P
1456406995.7,286047008.2,P
1456407015.6,286047006.9,P
1456407035.4,286047005.0,Y
1456407055.2,286046999.7,P
1456407075.1,286047001.4,N
1456407076.0,286047001.4,N
1456407095.8,286047004.2,N
1456407115.6,286046999.7,N
1456407135.4,286047004.3,N
1456407155.3,286047005.5,N
1456407175.1,286047004.8,N
1456407195.8,286047004.8,N
1456407215.7,286047008.1,Y
1456407235.5,286047003.8,P
1456407255.3,286047007.3,P
1456407275.2,286047011.8,P
1456407295.0,286047009.7,N
1456407295.9,286047009.7,N
1456407315.7,286047012.7,Y
1456407335.6,286047008.9,P
1456407355.4,286047012.3,P
1456407375.2,286047011.8,P
1456407395.1,286047009.8,Y
1456407396.0,286047009.8,P
1456407415.8,286046996.7,P
1456407435.6,286046998.8,N
1456407455.5,286046995.8,N
1456407475.3,286046994.4,N
1456407495.1,286046990.2,N
1456407515.9,286046993.1,N
1456407535.7,286046996.3,N
1456407555.5,286046998.3,N
1456407575.4,286047001.6,N
1456407595.2,286047000.2,N
1456407615.0,286046997.1,N
1456407615.9,286046997.1,N
1456407635.8,286046993.4,N
1456407655.6,286046990.9,N
1456407675.4,286046990.2,N
1456407695.3,286046990.4,N
1456407715.1,286046994.7,N
1456407716.0,286046994.7,N
1456407735.8,286046995.0,N
1456407755.6,286046995.5,N
1456407775.5,286046993.3,N
1456407795.3,286046997.4,N
1456407815.1,286046996.1,N
1456407835.9,286046990.4,N
1456407855.7,286046988.9,N
1456407875.5,286046985.8,N
1456407895.4,286046984.8,N
1456407915.2,286046985.6,N
1456407935.0,286046985.2,N
1456407935.9,286046985.2,N
1456407955.8,286046981.1,Y
1456407975.6,286046987.3,P
1456407995.4,286046989.3,P
1456408015.3,286046991.4,P
1456408035.1,286046994.7,N
1456408036.0,286046994.7,N
1456408055.8,286046994.7,N
1456408075.7,286046996.9,N
1456408095.5,286046991.8,N
1456408115.3,286046992.2,N
1456408135.1,286046993.0,N
1456408155.9,286046991.1,Y
1456408175.7,286046998.9,P
1456408195.5,286047001.2,N
1456408215.4,286047001.0,N
1456408235.2,286046999.7,N
1456408255.0,286047000.5,N
1456408255.9,286047000.5,N
1456408275.8,286047004.0,N
1456408295.6,286047004.8,N
1456408315.4,286047007.0,N
1456408335.3,286047008.0,N
1456408355.1,286047012.7,Y
1456408375.8,286047011.9,P
1456408395.7,286047013.6,N
1456408415.5,286047014.0,N
1456408435.3,286047009.6,N
1456408455.2,286047010.9,N
1456408475.9,286047015.2,Y
1456408495.7,286047001.4,P
1456408515.6,286047003.0,N
1456408535.4,286047005.4,N
1456408555.2,286046998.5,N
1456408575.0,286046998.5,N
1456408576.0,286046998.5,N
1456408595.8,286046996.6,N
1456408615.6,286046997.8,N
1456408635.4,286046998.0,N
1456408655.3,286046990.8,N
1456408675.1,286046989.2,N
1456408695.8,286046989.8,N
1456408715.7,286046989.0,N
1456408735.5,286046991.2,N
1456408755.3,286046987.2,N
1456408775.2,286046989.8,N
1456408795.9,286046983.4,N
